| time (UTC) | temp F | wind direction | speed knots | gust knots | rain 1hr in | rain 24hr in | rain mn in | humidity % | barometer mb |
| 20260506171118 | 48 | 195 | 4.3 | 7.0 | 0.00 | 0.00 | 0.00 | 54 | 1014.0 |
| 20260506170118 | 48 | 119 | 1.7 | 3.5 | 0.00 | 0.00 | 0.00 | 51 | 1014.0 |
| 20260506165138 | 49 | 157 | 1.7 | 4.3 | 0.00 | 0.00 | 0.00 | 51 | 1014.0 |
| 20260506164118 | 49 | 118 | 1.7 | 4.3 | 0.00 | 0.00 | 0.00 | 49 | 1014.0 |
| 20260506163117 | 48 | 165 | 2.6 | 7.0 | 0.00 | 0.00 | 0.00 | 50 | 1013.9 |
| 20260506162118 | 48 | 180 | 2.6 | 7.8 | 0.00 | 0.00 | 0.00 | 52 | 1013.9 |
| 20260506161118 | 47 | 177 | 2.6 | 5.2 | 0.00 | 0.00 | 0.00 | 55 | 1013.9 |
| 20260506160139 | 47 | 192 | 2.6 | 7.8 | 0.00 | 0.00 | 0.00 | 53 | 1013.9 |
| 20260506155118 | 47 | 179 | 3.5 | 7.8 | 0.00 | 0.00 | 0.00 | 55 | 1013.9 |
| 20260506154138 | 46 | 187 | 3.5 | 7.0 | 0.00 | 0.00 | 0.00 | 57 | 1014.0 |
| 20260506153118 | 47 | 161 | 2.6 | 6.1 | 0.00 | 0.00 | 0.00 | 55 | 1014.1 |
| 20260506152139 | 47 | 158 | 3.5 | 7.8 | 0.00 | 0.00 | 0.00 | 54 | 1014.2 |
| 20260506151117 | 47 | 184 | 4.3 | 9.6 | 0.00 | 0.00 | 0.00 | 53 | 1014.2 |
| 20260506150118 | 47 | 193 | 4.3 | 10.4 | 0.00 | 0.00 | 0.00 | 54 | 1014.1 |
| 20260506145118 | 48 | 199 | 7.0 | 10.4 | 0.00 | 0.00 | 0.00 | 50 | 1014.1 |
| 20260506144118 | 49 | 196 | 3.5 | 8.7 | 0.00 | 0.00 | 0.00 | 48 | 1014.0 |
| 20260506143117 | 48 | 190 | 2.6 | 5.2 | 0.00 | 0.00 | 0.00 | 49 | 1013.9 |
| 20260506142118 | 49 | 206 | 3.5 | 8.7 | 0.00 | 0.00 | 0.00 | 49 | 1014.0 |
| 20260506141118 | 49 | 188 | 2.6 | 7.0 | 0.00 | 0.00 | 0.00 | 51 | 1014.0 |
| 20260506140119 | 49 | 104 | 3.5 | 8.7 | 0.00 | 0.00 | 0.00 | 49 | 1014.1 |
| 20260506135118 | 49 | 137 | 2.6 | 5.2 | 0.00 | 0.00 | 0.00 | 47 | 1014.1 |
| 20260506134119 | 49 | 170 | 2.6 | 5.2 | 0.00 | 0.00 | 0.00 | 51 | 1014.0 |
| 20260506133118 | 48 | 184 | 2.6 | 7.0 | 0.00 | 0.00 | 0.00 | 49 | 1014.0 |
| 20260506132139 | 48 | 177 | 4.3 | 13.0 | 0.00 | 0.00 | 0.00 | 50 | 1013.8 |
| 20260506131118 | 49 | 204 | 4.3 | 11.3 | 0.00 | 0.00 | 0.00 | 51 | 1014.0 |
| 20260506130117 | 49 | 190 | 3.5 | 7.0 | 0.00 | 0.00 | 0.00 | 51 | 1014.0 |
| 20260506125137 | 45 | 202 | 9.6 | 20.0 | 0.00 | 0.00 | 0.00 | 62 | 1014.0 |
| 20260506124118 | 45 | 150 | 3.5 | 7.0 | 0.00 | 0.00 | 0.00 | 62 | 1014.0 |
| 20260506123118 | 45 | 199 | 7.8 | 13.0 | 0.00 | 0.00 | 0.00 | 60 | 1014.1 |
| 20260506122118 | 45 | 194 | 5.2 | 10.4 | 0.00 | 0.00 | 0.00 | 66 | 1014.1 |
| 20260506121118 | 45 | 206 | 7.8 | 13.0 | 0.00 | 0.00 | 0.00 | 62 | 1013.9 |
| 20260506120119 | 45 | 197 | 8.7 | 13.9 | 0.00 | 0.00 | 0.00 | 68 | 1013.9 |
| 20260506115137 | 45 | 214 | 4.3 | 7.8 | 0.00 | 0.00 | 0.00 | 68 | 1014.1 |
| 20260506114118 | 45 | 195 | 7.0 | 11.3 | 0.00 | 0.00 | 0.00 | 65 | 1014.1 |
| 20260506113117 | 46 | 188 | 6.1 | 11.3 | 0.00 | 0.00 | 0.00 | 58 | 1013.8 |
| 20260506112118 | 47 | 197 | 5.2 | 10.4 | 0.00 | 0.00 | 0.00 | 57 | 1013.9 |
| 20260506111137 | 46 | 189 | 6.1 | 11.3 | 0.00 | 0.00 | 0.00 | 61 | 1013.9 |
| 20260506110118 | 45 | 197 | 10.4 | 14.8 | 0.00 | 0.00 | 0.00 | 65 | 1013.8 |
| 20260506105117 | 46 | 202 | 7.0 | 11.3 | 0.00 | 0.00 | 0.00 | 62 | 1013.9 |
| 20260506104119 | 48 | 199 | 5.2 | 8.7 | 0.00 | 0.00 | 0.00 | 57 | 1013.8 |
| 20260506103118 | 47 | 197 | 6.1 | 8.7 | 0.00 | 0.00 | 0.00 | 56 | 1013.8 |
| 20260506102118 | 47 | 199 | 4.3 | 7.8 | 0.00 | 0.00 | 0.00 | 56 | 1013.8 |
| 20260506101117 | 51 | 21 | 1.7 | 2.6 | 0.00 | 0.00 | 0.00 | 52 | 1013.8 |
| 20260506100118 | 52 | 131 | 2.6 | 6.1 | 0.00 | 0.00 | 0.00 | 39 | 1013.6 |
| 20260506095117 | 49 | 99 | 1.7 | 2.6 | 0.00 | 0.00 | 0.00 | 45 | 1013.6 |
| 20260506094158 | 51 | 196 | 1.7 | 5.2 | 0.00 | 0.00 | 0.00 | 41 | 1013.5 |
| 20260506093118 | 51 | 74 | 1.7 | 6.1 | 0.00 | 0.00 | 0.00 | 32 | 1013.5 |
| 20260506092118 | 51 | 30 | 0.9 | 1.7 | 0.00 | 0.00 | 0.00 | 30 | 1013.4 |
| 20260506091117 | 51 | 346 | 2.6 | 4.3 | 0.00 | 0.00 | 0.00 | 32 | 1013.4 |
| 20260506090117 | 50 | 148 | 1.7 | 3.5 | 0.00 | 0.00 | 0.00 | 35 | 1013.4 |
| 20260506085157 | 47 | 313 | 2.6 | 5.2 | 0.00 | 0.00 | 0.00 | 44 | 1013.1 |
| 20260506084139 | 49 | 131 | 1.7 | 3.5 | 0.00 | 0.00 | 0.00 | 39 | 1013.0 |
| 20260506083118 | 48 | 329 | 1.7 | 4.3 | 0.00 | 0.00 | 0.00 | 43 | 1013.1 |
| 20260506082139 | 47 | 67 | 1.7 | 3.5 | 0.00 | 0.00 | 0.00 | 43 | 1012.9 |
| 20260506081137 | 47 | 313 | 2.6 | 5.2 | 0.00 | 0.00 | 0.00 | 45 | 1013.0 |
| 20260506080158 | 47 | 27 | 2.6 | 6.1 | 0.00 | 0.00 | 0.00 | 47 | 1012.8 |
| 20260506073117 | 47 | 298 | 1.7 | 5.2 | 0.00 | 0.00 | 0.00 | 47 | 1012.6 |
| 20260506072118 | 47 | 131 | 2.6 | 5.2 | 0.00 | 0.00 | 0.00 | 48 | 1012.6 |
| 20260506071117 | 47 | 77 | 0.9 | 2.6 | 0.00 | 0.00 | 0.00 | 48 | 1012.6 |
| 20260506070118 | 46 | 305 | 2.6 | 5.2 | 0.00 | 0.00 | 0.00 | 51 | 1012.6 |
| 20260506062118 | 44 | 26 | 1.7 | 4.3 | 0.00 | 0.00 | 0.00 | 58 | 1012.4 |
| 20260506061118 | 44 | 252 | 1.7 | 5.2 | 0.00 | 0.00 | 0.00 | 58 | 1012.4 |
| 20260506060118 | 44 | 340 | 1.7 | 3.5 | 0.00 | 0.00 | 0.00 | 60 | 1012.3 |
| 20260506051118 | 41 | 316 | 2.6 | 5.2 | 0.00 | 0.00 | 0.00 | 68 | 1011.8 |
| 20260506050118 | 40 | 113 | 2.6 | 4.3 | 0.00 | 0.00 | 0.00 | 69 | 1011.7 |
| 20260506044119 | 37 | 330 | 3.5 | 5.2 | 0.00 | 0.00 | 0.00 | 78 | 1011.2 |
| 20260506043117 | 37 | 351 | 2.6 | 5.2 | 0.00 | 0.00 | 0.00 | 77 | 1011.2 |
| 20260506042118 | 37 | 346 | 2.6 | 6.1 | 0.00 | 0.00 | 0.00 | 79 | 1011.0 |
| 20260506041117 | 37 | 91 | 1.7 | 5.2 | 0.00 | 0.00 | 0.00 | 79 | 1011.0 |
| 20260506040119 | 37 | 6 | 1.7 | 3.5 | 0.00 | 0.00 | 0.00 | 79 | 1010.9 |
| 20260506035117 | 37 | 345 | 1.7 | 5.2 | 0.00 | 0.00 | 0.00 | 79 | 1010.9 |
| 20260506034140 | 37 | 89 | 1.7 | 4.3 | 0.00 | 0.00 | 0.00 | 78 | 1010.7 |
| 20260506033119 | 37 | 109 | 1.7 | 3.5 | 0.00 | 0.00 | 0.00 | 79 | 1010.6 |
| 20260506032138 | 37 | 71 | 1.7 | 2.6 | 0.00 | 0.00 | 0.00 | 78 | 1010.6 |
| 20260506031117 | 37 | 78 | 1.7 | 3.5 | 0.00 | 0.00 | 0.00 | 78 | 1010.6 |
| 20260506030119 | 37 | 110 | 1.7 | 3.5 | 0.00 | 0.00 | 0.00 | 78 | 1010.5 |
| 20260506025118 | 37 | 117 | 1.7 | 4.3 | 0.00 | 0.00 | 0.00 | 78 | 1010.4 |
| 20260506024119 | 37 | 73 | 1.7 | 2.6 | 0.00 | 0.00 | 0.00 | 78 | 1010.4 |
| 20260506023118 | 36 | 319 | 1.7 | 3.5 | 0.00 | 0.00 | 0.00 | 78 | 1010.3 |
| 20260506022118 | 36 | 349 | 1.7 | 3.5 | 0.00 | 0.00 | 0.00 | 78 | 1010.1 |
| 20260506021118 | 36 | 326 | 1.7 | 4.3 | 0.00 | 0.00 | 0.00 | 78 | 1010.2 |
| 20260506020139 | 36 | 308 | 1.7 | 3.5 | 0.00 | 0.00 | 0.00 | 79 | 1010.1 |
| 20260506015118 | 36 | 290 | 2.6 | 5.2 | 0.00 | 0.00 | 0.00 | 79 | 1010.1 |
| 20260506014118 | 36 | 302 | 1.7 | 4.3 | 0.00 | 0.00 | 0.00 | 79 | 1010.0 |
| 20260506013118 | 36 | 251 | 1.7 | 5.2 | 0.00 | 0.00 | 0.00 | 78 | 1010.0 |
| 20260506012138 | 36 | 301 | 2.6 | 4.3 | 0.00 | 0.00 | 0.00 | 78 | 1010.0 |
| 20260506011118 | 36 | 317 | 1.7 | 3.5 | 0.00 | 0.00 | 0.00 | 77 | 1009.9 |
| 20260506010117 | 37 | 318 | 1.7 | 4.3 | 0.00 | 0.00 | 0.00 | 76 | 1009.9 |
| 20260506005139 | 38 | 331 | 2.6 | 5.2 | 0.00 | 0.00 | 0.00 | 75 | 1009.3 |
| 20260506004118 | 38 | 222 | 1.7 | 3.5 | 0.00 | 0.00 | 0.00 | 76 | 1009.3 |
| 20260506003118 | 38 | 20 | 1.7 | 5.2 | 0.00 | 0.00 | 0.00 | 75 | 1009.3 |
| 20260506002239 | 38 | 21 | 1.7 | 3.5 | 0.00 | 0.00 | 0.00 | 74 | 1009.2 |
| 20260506001138 | 38 | 255 | 1.7 | 5.2 | 0.00 | 0.00 | 0.00 | 74 | 1009.2 |
| 20260506000139 | 38 | 187 | 1.7 | 6.1 | 0.00 | 0.00 | 0.00 | 73 | 1009.2 |
| 20260505235118 | 39 | 97 | 1.7 | 4.3 | 0.00 | 0.00 | 0.00 | 73 | 1009.1 |
| 20260505234118 | 39 | 357 | 2.6 | 6.1 | 0.00 | 0.00 | 0.00 | 72 | 1009.1 |
| 20260505233138 | 39 | 289 | 2.6 | 6.1 | 0.00 | 0.00 | 0.00 | 72 | 1008.9 |
| 20260505232158 | 39 | 349 | 2.6 | 9.6 | 0.00 | 0.00 | 0.00 | 71 | 1008.9 |
| 20260505231138 | 39 | 12 | 1.7 | 5.2 | 0.00 | 0.00 | 0.00 | 73 | 1008.7 |
| 20260505230118 | 39 | 331 | 2.6 | 5.2 | 0.00 | 0.00 | 0.00 | 71 | 1008.8 |
| 20260505225117 | 39 | 338 | 2.6 | 4.3 | 0.00 | 0.00 | 0.00 | 71 | 1008.7 |
| 20260505224118 | 40 | 344 | 4.3 | 7.0 | 0.00 | 0.00 | 0.00 | 71 | 1008.7 |
| 20260505223118 | 40 | 327 | 2.6 | 7.0 | 0.00 | 0.00 | 0.00 | 70 | 1008.7 |
| 20260505222119 | 40 | 59 | 2.6 | 7.0 | 0.00 | 0.00 | 0.00 | 70 | 1008.7 |
| 20260505221118 | 40 | 290 | 2.6 | 5.2 | 0.00 | 0.00 | 0.00 | 68 | 1008.6 |
| 20260505220118 | 40 | 330 | 2.6 | 7.0 | 0.00 | 0.00 | 0.00 | 68 | 1008.5 |
| 20260505215118 | 40 | 24 | 2.6 | 6.1 | 0.00 | 0.00 | 0.00 | 68 | 1008.5 |
| 20260505214119 | 41 | 149 | 2.6 | 4.3 | 0.00 | 0.00 | 0.00 | 67 | 1008.4 |
| 20260505213117 | 41 | 100 | 2.6 | 7.0 | 0.00 | 0.00 | 0.00 | 65 | 1008.4 |
| 20260505212119 | 41 | 41 | 1.7 | 4.3 | 0.00 | 0.00 | 0.00 | 65 | 1008.3 |
| 20260505211117 | 41 | 148 | 2.6 | 7.8 | 0.00 | 0.00 | 0.00 | 63 | 1008.2 |
| 20260505210118 | 41 | 256 | 3.5 | 8.7 | 0.00 | 0.00 | 0.00 | 64 | 1008.2 |
| 20260505205157 | 43 | 351 | 3.5 | 7.0 | 0.00 | 0.00 | 0.00 | 57 | 1007.4 |
| 20260505204119 | 43 | 339 | 3.5 | 7.8 | 0.00 | 0.00 | 0.00 | 58 | 1007.3 |
| 20260505203118 | 44 | 342 | 2.6 | 6.1 | 0.00 | 0.00 | 0.00 | 55 | 1007.4 |
| 20260505202119 | 44 | 74 | 1.7 | 4.3 | 0.00 | 0.00 | 0.00 | 54 | 1007.3 |
| 20260505201118 | 44 | 4 | 2.6 | 5.2 | 0.00 | 0.00 | 0.00 | 54 | 1007.2 |
| 20260505200139 | 44 | 104 | 2.6 | 7.0 | 0.00 | 0.00 | 0.00 | 50 | 1007.1 |
| 20260505195138 | 45 | 122 | 2.6 | 5.2 | 0.00 | 0.00 | 0.00 | 47 | 1007.0 |
| 20260505194119 | 45 | 143 | 2.6 | 7.0 | 0.00 | 0.00 | 0.00 | 48 | 1006.8 |
| 20260505193158 | 45 | 72 | 2.6 | 6.1 | 0.00 | 0.00 | 0.00 | 47 | 1007.0 |
| 20260505192118 | 45 | 81 | 3.5 | 6.1 | 0.00 | 0.00 | 0.00 | 48 | 1006.8 |
| 20260505191118 | 46 | 103 | 2.6 | 5.2 | 0.00 | 0.00 | 0.00 | 46 | 1006.8 |
| 20260505190118 | 46 | 111 | 2.6 | 6.1 | 0.00 | 0.00 | 0.00 | 48 | 1006.6 |
| 20260505185118 | 46 | 19 | 3.5 | 7.8 | 0.00 | 0.00 | 0.00 | 51 | 1006.5 |
| 20260505184118 | 46 | 133 | 3.5 | 7.0 | 0.00 | 0.00 | 0.00 | 44 | 1006.3 |
| 20260505183117 | 46 | 111 | 3.5 | 5.2 | 0.00 | 0.00 | 0.00 | 42 | 1006.4 |
| 20260505182139 | 47 | 21 | 3.5 | 7.8 | 0.00 | 0.00 | 0.00 | 43 | 1006.3 |
| 20260505181118 | 47 | 91 | 2.6 | 5.2 | 0.00 | 0.00 | 0.00 | 43 | 1006.2 |
| 20260505180119 | 47 | 53 | 4.3 | 8.7 | 0.00 | 0.00 | 0.00 | 44 | 1006.2 |
| 20260505175117 | 48 | 168 | 3.5 | 7.8 | 0.00 | 0.00 | 0.00 | 45 | 1006.1 |
| 20260505174118 | 48 | 118 | 2.6 | 4.3 | 0.00 | 0.00 | 0.00 | 42 | 1006.1 |
| 20260505173118 | 48 | 150 | 3.5 | 8.7 | 0.00 | 0.00 | 0.00 | 43 | 1006.1 |
| 20260505172119 | 48 | 102 | 4.3 | 11.3 | 0.00 | 0.00 | 0.00 | 40 | 1006.0 |